Regional Weather Roundup
Issued by NWS

Home | Current Version | Previous Version | Graphics & Text | Print | Product List | Glossary On
Versions: 1 2 3 4 5 6 7 8 9 10 11 12 13 14 15 16 17 18 19 20 21 22 23 24 25 26 27 28 29 30 31 32 33 34 35 36 37 38 39 40 41 42 43 44 45 46 47 48 49 50
000
ASUS43 KOAX 032010
RWRNE

WEATHER ROUNDUP FOR NEBRASKA
NATIONAL WEATHER SERVICE OMAHA NE
300 PM CDT MON AUG 03 2015

NOTES: SATELLITE DATA IS BEING USED TO AUGMENT CLOUD COVER ABOVE
       12000 FEET.
       "FAIR" INDICATES FEW OR NO CLOUDS BELOW 12,000 FEET WITH NO
       SIGNIFICANT WEATHER AND/OR OBSTRUCTIONS TO VISIBILITY.

  * THESE STATIONS DO NOT REPORT WEATHER SUCH AS RAIN...SNOW OR FOG.

NEZ001>004-019>022-054>056-032100-
NEBRASKA PANHANDLE

CITY           SKY/WX    TMP DP  RH WIND       PRES   REMARKS
SCOTTSBLUFF    CLOUDY    83  60  45 E9        30.00F
ALLIANCE       PTSUNNY   87  60  40 S7        30.01S
CHADRON        MOSUNNY   87  61  41 E8        29.97F
KIMBALL        PTSUNNY   88  39  18 S17G23    30.04F
SIDNEY         PTSUNNY   90  55  30 S9        30.03F
$$

NEZ057>060-069>072-079>082-032100-
SOUTHWEST NEBRASKA

CITY           SKY/WX    TMP DP  RH WIND       PRES   REMARKS
NORTH PLATTE   MOSUNNY   84  69  60 E13       29.99F
IMPERIAL       CLOUDY    86  62  44 SE10      30.00F
LEXINGTON      MOSUNNY   85  68  55 SE13      29.99S
MCCOOK         CLOUDY    87  67  51 E8        29.97F HX  90
OGALLALA       CLOUDY    86  65  49 SE9       30.00S
$$

NEZ005>010-023>029-035>040-094-032100-
NORTH CENTRAL NEBRASKA

CITY           SKY/WX    TMP DP  RH WIND       PRES   REMARKS
AINSWORTH      MOSUNNY   81  60  48 E8        30.02F
BROKEN BOW     MOSUNNY   86  61  42 E10       29.99F
O`NEILL        SUNNY     82  57  42 E7        30.01F
ORD            MOSUNNY   83  61  47 SE10      29.98F
THEDFORD       MOSUNNY   86  60  41 SE13G18   30.02F
$$

NEZ041-046>049-061>064-073>077-083>087-032100-
SOUTH CENTRAL NEBRASKA

CITY           SKY/WX    TMP DP  RH WIND       PRES   REMARKS
GRAND ISLAND   MOSUNNY   82  67  60 E10       29.99F
AURORA         MOSUNNY   79  67  66 E9        29.99S
HASTINGS       MOSUNNY   84  71  65 NE14      29.98R
HEBRON         MOSUNNY   86  70  58 E9        29.94F HX  91
HOLDREGE       MOSUNNY   84  68  57 E13       29.98F
KEARNEY *      MOSUNNY   84  70  61 E10       29.98S
YORK           MOSUNNY   81  68  65 E9        29.99S
$$

NEZ011>018-030>034-042>045-032100-
NORTHEAST NEBRASKA

CITY           SKY/WX    TMP DP  RH WIND       PRES   REMARKS
NORFOLK        SUNNY     82  59  45 N5        30.00S
ALBION         SUNNY     79  59  49 E8        30.01S
BLAIR          MOSUNNY   78  62  57 CALM      30.00S
COLUMBUS *     SUNNY     82  63  51 NE6       29.98S
FREMONT        SUNNY     80  63  55 CALM      30.00R
TEKAMAH        SUNNY     80  64  58 CALM      29.98R
WAYNE          MOSUNNY   79  62  55 CALM      30.01R
$$

NEZ050>053-065>068-078-088>093-032100-
SOUTHEAST NEBRASKA

CITY           SKY/WX    TMP DP  RH WIND       PRES   REMARKS
LINCOLN        MOSUNNY   85  66  53 NE8       29.97F
OMAHA EPPLEY   PTSUNNY   80  62  54 SE6       29.98R
BEATRICE       MOSUNNY   83  70  64 NE10      29.95F
FALLS CITY     MOSUNNY   81  73  76 NE5       29.94S
NEBRASKA CITY  PTSUNNY   78  59  52 CALM      29.96S
PLATTSMOUTH    PTSUNNY   79  62  57 E3        29.98F
$$

NEZ044-045-051>053-067-032100-
OMAHA AREA

CITY           SKY/WX    TMP DP  RH WIND       PRES   REMARKS
OMAHA EPPLEY   PTSUNNY   80  62  54 SE6       29.98R
BLAIR          MOSUNNY   78  62  57 CALM      30.00S
FREMONT        SUNNY     80  63  55 CALM      30.00R
MILLARD          N/A     80  64  59 E3        29.98S
OFFUTT AFB     MOSUNNY   80  64  58 E5        29.97S
PLATTSMOUTH    PTSUNNY   79  62  57 E3        29.98F
WAHOO          FAIR      80  64  59 E3        29.99S
$$



USA.gov is the U.S. government's official web portal to all federal, state and local government web resources and services.